Location: Mahannah Oil Field
(37.4664°N, 96.6003°W)
Time: 01:44:57
(UTC+00:00)

Tiros 1 despin weight - Pass Details

Date: 30 January 2021
Orbit: 593 x 642 km, 48.2° (Epoch: 25 February)

Event Time Altitude Azimuth Distance (km) Brightness Sun altitude
Rises 21:38:05 0° 300° (WNW) 2,892 ? 21.0°
Reaches altitude 10° 21:40:52 10° 316° (NW) 1,976 ? 20.6°
Maximum altitude 21:44:23 22° 7° (N) 1,355 ? 20.0°
Drops below altitude 10° 21:47:52 10° 58° (ENE) 1,951 ? 19.5°
Sets 21:50:36 0° 74° (ENE) 2,845 ? 19.1°
